"Pseudo-MPEC" for JA4y1Jn

Created 2023 Mar 26 4:22:07 UT using Find_Orb

Click here for an explanation of pseudo-MPECs

 
 Astrometry: 
     JA4y1Jn*!C2023 03 13%u)*^x[i;9KTYu=o$@KrAbp9Re$HMKcSFl]^ErM`1ynDN2mR,s$NW84
     JA4y1Jn !C2023 03 135tAg_yj3JSfp#/EO\_`[T^0@RLKAT`;u'UtqBx%.IYeX$::cTPq8W84
     JA4y1Jn !C2023 03 13:kDVIQLcGEPpDAstrometryOu,xTKV2eJP?!1:mVKeY7CI9h%D^IW84
     JA4y1Jn |C2023 03 14s4/KBZ[UE++`,PTy`%?(V+Iredacted;*1mC4fWDkyXLT$X9vrFL807
     JA4y1Jn |C2023 03 14y@R`4Nswa*E*?e;=W:u)IS;bP3b0`Ql4kbGS9.^^lclickW$-N[I807
     JA4y1Jn |C2023 03 14%#ZA-m^=-Hyh9YPa3CoK\(`#Vu%Y9^6sCAd;(=(,W;6NYgS;)5U-807
     JA4y1Jn |C2023 03 14EPf%DK;q+9lI.ugK#s\/GBh8KjG25xy:v$0mc#`2e[y68Ls05MWW807
     JA4y1Jn |C2023 03 17o2IAqS7I,,Edpl'sR9^glN%r!j-OG?D3B?i9M[b3gaR]TY0`sn(?807
     JA4y1Jn |C2023 03 17va8xQyMSK@aE0Trkq_2X7IfqY'D'cc#JU!VU(/M.OhS_C%*:dLVe807
     JA4y1Jn |C2023 03 179MxtK%]4)-D^cygLLOhere;\;8aR%$[\qb4E3:(wjF[-EZK+6@g+807
     JA4y1Jn |C2023 03 172N+d.CC8n,L:s@BuqfA-t@/.F;x@\)SeiqsE:p7c=#P^yKUfG:AH807
     JA4y1Jn |C2023 03 24gubW);BL2;K'2bjhGFDMfkjfp(forTk(Hf1klC`$Lno`og$1R\VB807
     JA4y1Jn |C2023 03 24=ClEQ](G+HexplanationXP:U72Z=9(2SxTXned*v,G?xGp5Oq@Q807
     JA4y1Jn |C2023 03 24OKk^$Yq!FJS\!?F+;,S4^^s)UnZ*?%i5)aHTnYIH;Jhb0]Hcr-=V807

Station data:
(807) Cerro Tololo Observatory, La Serena  (S30.169133 W70.805900)  Chile.
   Observer R. Holmes. 0.61-m f/6.5 astrograph + CCD.
(W84) Cerro Tololo-DECam  (S30.169594 W70.806420)  Chile.  Observer F. Valdes.
    Measurer S. Deen. 4.0-m reflector + CCD.

Orbital elements:  JA4y1Jn
   Perihelion 2023 Apr 14.09989 +/- 0.0375 TT =  2:23:50 (JD 2460048.59989)
Epoch 2023 Mar 24.0 TT = JDT 2460027.5   Earth MOID: 0.1564      AutoNEOCP
M 352.80221264 +/- 0.020            (J2000 ecliptic)
n   0.34112909 +/- 0.00154          Peri.    2.18740 +/- 0.043
a   2.02857099 +/- 0.0061           Node   195.32132 +/- 0.018
e   0.4292903 +/- 0.00154           Incl.    3.88867 +/- 0.010
P   2.89                   H 24.87  G  0.15   U  8.4
q 1.15772513 +/- 0.000359    Q 2.89941684 +/- 0.0119
From 14 observations 2023 Mar. 13-24; mean residual 0".24
Residuals in arcseconds: 
230313 W84  .02+  .01-    230314 807  .34+  .08+    230317 807  .58+  .03-    
230313 W84  .03-  .00     230314 807  .11-  .58-    230324 807  .13-  .27-    
230313 W84  .13+  .35+    230317 807  .34-  .05-    230324 807  .06+  .04+    
230314 807  .06+  .14+    230317 807  .29-  .13+    230324 807  .06+  .21+    
230314 807  .46-  .24-    230317 807  .08+  .19+    

Ephemerides (geocentric):
Date (UTC) HH   RA             Dec           delta  r     elong  mag " sig PA
---- --------  ------------   ------------  ------ ------ -----  --- --------
2023 03 26 04  10 13 24.015   +04 31 52.04  .20272 1.1745 148.2 23.0 .477 167
2023 03 26 05  10 13 28.416   +04 32 18.50  .20267 1.1744 148.2 23.0 .486 168
2023 03 26 06  10 13 32.827   +04 32 44.94  .20262 1.1744 148.1 23.0 .494 168
2023 03 26 07  10 13 37.248   +04 33 11.38  .20257 1.1743 148.1 23.0 .503 168
2023 03 26 08  10 13 41.678   +04 33 37.80  .20251 1.1742 148.1 23.0 .511 168
2023 03 26 09  10 13 46.117   +04 34 04.21  .20246 1.1741 148.1 23.0 .520 168
2023 03 26 10  10 13 50.566   +04 34 30.62  .20241 1.1741 148.0 23.0 .529 168
2023 03 26 11  10 13 55.025   +04 34 57.01  .20236 1.1740 148.0 23.0 .538 168
2023 03 26 12  10 13 59.493   +04 35 23.39  .20231 1.1739 148.0 23.0 .546 168
2023 03 26 13  10 14 03.971   +04 35 49.76  .20226 1.1738 148.0 23.0 .555 168
2023 03 26 14  10 14 08.459   +04 36 16.12  .20221 1.1738 148.0 23.0 .564 168
2023 03 26 15  10 14 12.956   +04 36 42.47  .20216 1.1737 147.9 23.0 .573 168
2023 03 26 16  10 14 17.463   +04 37 08.81  .20211 1.1736 147.9 23.0 .582 169
2023 03 26 17  10 14 21.979   +04 37 35.13  .20206 1.1736 147.9 23.0 .591 169
2023 03 26 18  10 14 26.505   +04 38 01.45  .20201 1.1735 147.9 23.0 .600 169
2023 03 26 19  10 14 31.040   +04 38 27.75  .20196 1.1734 147.8 23.0 .610 169
2023 03 26 20  10 14 35.586   +04 38 54.04  .20191 1.1733 147.8 23.0 .619 169
2023 03 26 21  10 14 40.140   +04 39 20.32  .20186 1.1733 147.8 23.0 .628 169
2023 03 26 22  10 14 44.705   +04 39 46.59  .20181 1.1732 147.8 23.0 .638 169
2023 03 26 23  10 14 49.279   +04 40 12.84  .20176 1.1731 147.7 23.0 .647 169
2023 03 27 00  10 14 53.862   +04 40 39.08  .20171 1.1731 147.7 23.0 .656 169
2023 03 27 01  10 14 58.455   +04 41 05.31  .20166 1.1730 147.7 23.0 .666 170
2023 03 27 02  10 15 03.058   +04 41 31.53  .20161 1.1729 147.7 23.0 .676 170
2023 03 27 03  10 15 07.671   +04 41 57.74  .20156 1.1729 147.6 23.0 .685 170
2023 03 27 04  10 15 12.293   +04 42 23.93  .20151 1.1728 147.6 23.0 .695 170
2023 03 27 05  10 15 16.924   +04 42 50.11  .20146 1.1727 147.6 23.0 .705 170
2023 03 27 06  10 15 21.566   +04 43 16.28  .20141 1.1727 147.6 23.0 .715 170
2023 03 27 07  10 15 26.217   +04 43 42.43  .20136 1.1726 147.6 23.0 .725 170
2023 03 27 08  10 15 30.877   +04 44 08.57  .20132 1.1725 147.5 23.0 .735 170
2023 03 27 09  10 15 35.547   +04 44 34.70  .20127 1.1724 147.5 23.0 .745 170
2023 03 27 10  10 15 40.227   +04 45 00.81  .20122 1.1724 147.5 23.0 .755 170
2023 03 27 11  10 15 44.917   +04 45 26.91  .20117 1.1723 147.5 23.0 .765 171
2023 03 27 12  10 15 49.616   +04 45 53.00  .20112 1.1722 147.4 23.0 .775 171
2023 03 27 13  10 15 54.325   +04 46 19.07  .20108 1.1722 147.4 23.0 .785 171
2023 03 27 14  10 15 59.043   +04 46 45.13  .20103 1.1721 147.4 23.0 .796 171
2023 03 27 15  10 16 03.771   +04 47 11.17  .20098 1.1720 147.4 23.0 .806 171
2023 03 27 16  10 16 08.509   +04 47 37.20  .20093 1.1720 147.3 23.0 .817 171
2023 03 27 17  10 16 13.256   +04 48 03.22  .20089 1.1719 147.3 23.0 .827 171
2023 03 27 18  10 16 18.013   +04 48 29.22  .20084 1.1718 147.3 23.0 .838 171
2023 03 27 19  10 16 22.780   +04 48 55.21  .20079 1.1718 147.3 23.0 .848 171
2023 03 27 20  10 16 27.556   +04 49 21.18  .20074 1.1717 147.3 23.0 .859 172
2023 03 27 21  10 16 32.342   +04 49 47.14  .20070 1.1716 147.2 23.0 .870 172
2023 03 27 22  10 16 37.138   +04 50 13.08  .20065 1.1716 147.2 23.0 .881 172
2023 03 27 23  10 16 41.943   +04 50 39.01  .20060 1.1715 147.2 23.0 .891 172
2023 03 28 00  10 16 46.758   +04 51 04.92  .20056 1.1714 147.2 23.0 .902 172
2023 03 28 01  10 16 51.583   +04 51 30.82  .20051 1.1714 147.1 23.0 .913 172
2023 03 28 02  10 16 56.417   +04 51 56.70  .20047 1.1713 147.1 23.0 .924 172
2023 03 28 03  10 17 01.261   +04 52 22.56  .20042 1.1712 147.1 23.0 .936 172